Location: Saint-Palais-sur-Mer
(45.6429°N, 1.0859°W)
Time: 15:43:27
(UTC+01:00)

S-56A Canister/Altair - Pass Details

Date: 12 February 2026
Orbit: 633 x 2484 km, 38.9° (Epoch: 16 March)

Event Time Altitude Azimuth Distance (km) Brightness Sun altitude
Exits shadow 03:18:41 31° 106° (ESE) 2,778 10.4 -49.3°
Drops below altitude 10° 03:24:53 10° 92° (E) 4,535 11.8 -48.4°
Sets 03:29:08 0° 88° (E) 5,766 12.5 -47.9°
